NOAA 16 DEB, 42378

Orbit data source: Space-Track

NOAA 16 DEB, 42378 is space debris in SSO originally from a launch on Thu, 21 Sep 2000 UTC launched from the Air Force Western Test Range (AFWTR). Debris objects in space refer to the collection of defunct objects orbiting the Earth. Examples of debris include non-operational satellites, rocket bodies, and fragments generated from explosions, collisions, or faulty payload assembly.

Loading next visibility...
Identifier
42378, 2000-055RW
Orbit
SSO
Country
Flag of USUS
Related business
Manufacturer
Unknown
Mission
Spacecraft
Bus & Motor
Unknown
Mass
Unknown
Launch date (UTC)
2000-09-21 (25 years ago)
Launch vehicle
Unknown
Launch site
Air Force Western Test Range (AFWTR)
Object type
Payload
Rocket body
Debris
Shape & HBR
Unknown shape, 0.1 m
Radar Cross Section
Small (<0.1 m²)

Expand to show TLE details & history
Last TLE update: 1 day ago

TLE from 1 day ago
0 NOAA 16 DEB
1 42378U 00055RW  25299.33104442  .00008665  00000-0  25890-2 0  9993
2 42378  98.8594  72.7369 0019873 115.1337 245.1916 14.43071510500528
Epoch: 2025-10-26T07:56Z
TLE epoch observation values (Epoch: 2025-10-26T07:56:42.237Z)
Latitude
-0.00006°
Longitude
-81.38786°
Altitude
757.276 km
Speed
7.473 km/s
True Right ascension
04h 50m 56s
True Declination
0° 00' 00"
Sunlit
Object was in full shadow at epoch
Visualization orbit readout
Latitude
Unknown
Longitude
Unknown
Altitude
Unknown
Speed
Unknown
Apparent Right ascension
Unknown
Apparent Declination
Unknown
Sunlit
N/A
Visualization observer readout
Local Sidereal Time
10:06:48
Azimuth
Unknown
Elevation
Unknown
Doppler factor
Unknown
Orbital elements
Apogee altitude
759.66 km
Perigee altitude
731.347 km
Semi-major axis
7,123.64 km
Eccentricity
0.00199
Inclination
98.8594°
RAAN
72.7369°
Arg. of periapsis
115.1337°
True anomaly
244.9851°
Mean anomaly
245.1916°
Eccentric anomaly
245.08833°
Mean motion
3.60986 °/min
Orbital period
99.73 mins
BSTAR
0.002589
Loading maneuver chart data...
Computing Atmospheric mass density...
Loading historical data...
Loading historical data...
Loading historical data...
Loading historical data...
Loading historical data...
Loading historical data...
Loading historical data...

Documentation

Showing up to 5 results
|